Location: Newark
(42.8481°N, 0.4872°E)
Time: 23:25:45
(UTC+00:00)

Vanguard 2 - Pass Details

Date: 31 October 2020
Orbit: 554 x 2937 km, 32.9° (Epoch: 29 November)

Event Time Altitude Azimuth Distance (km) Brightness Sun altitude
Rises 01:01:31 0° 278° (W) 6,578 - -56.6°
Reaches altitude 10° 01:06:34 10° 269° (W) 5,703 - -56.0°
Maximum altitude 01:20:28 30° 218° (SW) 4,234 - -54.4°
Drops below altitude 10° 01:33:01 10° 165° (SSE) 5,104 - -52.7°
Sets 01:37:17 0° 155° (SSE) 5,810 - -52.1°
